Weather History for Milwaukee, WI

Change the Weather History Date:

Monday, February 11, 2013

  Actual Average Record
Temperature  
Mean Temperature 35 °F 25 °F  
Max Temperature 42 °F 31 °F 68 °F (1999)
Min Temperature 28 °F 18 °F -24 °F (1885)
Degree Days  
Heating Degree Days 30 40  
Month to date heating degree days 491 453  
Since 1 July heating degree days 4076 4338  
Cooling Degree Days 0 0  
Month to date cooling degree days 0 0  
Year to date cooling degree days 0 0  
Moisture  
Dew Point 24 °F    
Average Humidity 75    
Maximum Humidity 85    
Minimum Humidity 65    
Precipitation  
Precipitation T in 0.06 in 0.99 in (1880)
Month to date precipitation 1.29 0.60  
Year to date precipitation 4.46 2.36  
Snow  
Snow T in 0.40 in 7.00 in (1887)
Month to date snowfall 10.1 4.0  
Since 1 July snowfall 21.5 32.0  
Snow Depth 2.00 in    
Sea Level Pressure  
Sea Level Pressure 29.70 in    
Wind  
Wind Speed 19 mph (West)    
Max Wind Speed 35 mph    
Max Gust Speed 44 mph    
Visibility 9 miles    
Events Rain , Snow    
T = Trace of Precipitation, MM = Missing Value Source: NWS Daily Summary

Daily Weather History Graph

Daily Weather History Graph

Search for Another Location

Airport:

Trip Planner

Search our weather history database for the weather conditions in past years. The results will help you decide how hot, cold, wet, or windy it might be!

Date:

Astronomy

Feb. 11, 2013 Rise Set
Actual Time 6:54 AM CST 5:18 PM CST
Civil Twilight 6:24 AM CST 5:47 PM CST
Nautical Twilight 5:51 AM CST 6:20 PM CST
Astronomical Twilight 5:18 AM CST 6:53 PM CST
Moon 7:14 AM CST (2/11) 7:19 PM CST (2/11)
Length of Visible Light 11h 22m
Length of Day
10h 23m
Waxing Crescent, 3% of the Moon is Illuminated
Feb 11
Waxing Crescent
Feb 17
First Quarter
Feb 25
Full
Mar 4
Last Quarter
Mar 11
New

Hourly Weather History & Observations

Time (CST) Temp. Windchill Dew Point Humidity Pressure Visibility Wind Dir Wind Speed Gust Speed Precip Events Conditions
12:52 AM 41.0 °F 31.4 °F 30.9 °F 67% 29.44 in 10.0 mi SW 21.9 mph 33.4 mph N/A   Overcast
1:49 AM 39.2 °F 29.0 °F 30.2 °F 70% 29.44 in 10.0 mi WSW 21.9 mph 34.5 mph N/A   Overcast
1:52 AM 39.0 °F 29.0 °F 30.9 °F 73% 29.46 in 10.0 mi WSW 20.7 mph 34.5 mph N/A   Overcast
2:52 AM 37.0 °F 25.6 °F 28.9 °F 73% 29.46 in 10.0 mi SW 24.2 mph 35.7 mph 0.00 in Rain Light Rain
3:52 AM 35.1 °F 21.8 °F 28.0 °F 76% 29.46 in 10.0 mi SW 29.9 mph 40.3 mph 0.00 in   Overcast
4:52 AM 34.0 °F 22.4 °F 27.0 °F 75% 29.48 in 10.0 mi SW 20.7 mph 34.5 mph N/A   Overcast
5:52 AM 34.0 °F 22.7 °F 27.0 °F 75% 29.49 in 7.0 mi WSW 19.6 mph 31.1 mph 0.00 in Snow Light Snow
6:52 AM 34.0 °F 21.0 °F 26.1 °F 73% 29.51 in 10.0 mi WSW 26.5 mph 38.0 mph 0.00 in   Overcast
7:52 AM 33.1 °F 20.9 °F 26.1 °F 75% 29.53 in 7.0 mi WSW 21.9 mph 29.9 mph 0.00 in Snow Light Snow
8:52 AM 33.1 °F 20.9 °F 27.0 °F 78% 29.55 in 4.0 mi WSW 21.9 mph 33.4 mph 0.00 in Snow Light Snow
9:52 AM 33.1 °F 20.6 °F 26.1 °F 75% 29.58 in 9.0 mi West 23.0 mph 32.2 mph 0.00 in Snow Light Snow
10:52 AM 34.0 °F 22.7 °F 27.0 °F 75% 29.62 in 9.0 mi West 19.6 mph 32.2 mph 0.00 in Snow Light Snow
11:52 AM 34.0 °F 23.0 °F 27.0 °F 75% 29.64 in 10.0 mi West 18.4 mph 31.1 mph 0.00 in   Overcast
12:52 PM 33.1 °F 20.3 °F 26.1 °F 75% 29.68 in 10.0 mi WSW 24.2 mph 35.7 mph N/A   Overcast
1:52 PM 32.0 °F 19.8 °F 25.0 °F 75% 29.72 in 10.0 mi West 20.7 mph 28.8 mph N/A   Overcast
2:52 PM 32.0 °F 20.8 °F 24.1 °F 73% 29.75 in 10.0 mi West 17.3 mph 25.3 mph N/A   Overcast
3:52 PM 30.9 °F 19.4 °F 23.0 °F 72% 29.79 in 9.0 mi West 17.3 mph 25.3 mph 0.00 in Snow Light Snow
4:52 PM 30.9 °F 21.7 °F 21.9 °F 69% 29.83 in 9.0 mi West 11.5 mph 25.3 mph 0.00 in   Overcast
5:52 PM 30.0 °F 19.5 °F 21.0 °F 69% 29.88 in 10.0 mi West 13.8 mph 25.3 mph 0.00 in Snow Light Snow
6:52 PM 30.0 °F 17.5 °F 21.0 °F 69% 29.91 in 9.0 mi West 19.6 mph 28.8 mph 0.00 in   Overcast
7:52 PM 28.9 °F 16.9 °F 19.9 °F 69% 29.93 in 10.0 mi West 17.3 mph 25.3 mph N/A   Overcast
8:52 PM 28.9 °F 18.6 °F 19.0 °F 67% 29.94 in 10.0 mi West 12.7 mph 24.2 mph N/A   Overcast
9:01 PM 28.4 °F 15.4 °F 19.4 °F 69% 29.92 in 10.0 mi WNW 19.6 mph 31.1 mph N/A   Overcast
9:52 PM 28.0 °F 17.5 °F 19.9 °F 72% 29.95 in 10.0 mi West 12.7 mph 21.9 mph N/A   Overcast
10:52 PM 28.0 °F 18.6 °F 19.0 °F 69% 29.98 in 10.0 mi West 10.4 mph 19.6 mph N/A   Overcast
11:52 PM 28.0 °F 17.0 °F 19.0 °F 69% 30.00 in 10.0 mi West 13.8 mph 24.2 mph N/A   Overcast